Location: *
(58.7167°N, 26.1833°E)
Time: 22:15:30
(UTC+00:00)

Nadezhda 3 Rocket - Pass Details

Date: 25 August 2019
Orbit: 957 x 1000 km, 82.9° (Epoch: 20 September)

Event Time Altitude Azimuth Distance (km) Brightness Sun altitude
Exits shadow 22:21:03 38° 177° (S) 1,423 4.3 -20.7°
Maximum altitude 22:23:33 78° 99° (E) 988 3.9 -20.7°
Drops below altitude 10° 22:29:43 10° 14° (NNE) 2,703 7.5 -20.6°
Sets 22:32:14 0° 14° (NNE) 3,654 8.5 -20.6°
